Location: Krasnoyarskiy Pitomnik
(51.1333°N, 71.6167°E)
Time: 00:59:12
(UTC+00:00)

CZ-2D DEB - Pass Details

Date: 11 December 2025
Orbit: 551 x 569 km, 98.3° (Epoch: 20 January)

Event Time Altitude Azimuth Distance (km) Brightness Sun altitude
Rises 23:51:09 0° 135° (SE) 2,747 ? -29.4°
Reaches altitude 10° 23:53:29 10° 124° (SE) 1,852 ? -29.0°
Maximum altitude 23:56:56 29° 64° (ENE) 1,056 ? -28.5°
Enters shadow 23:57:52 26° 40° (NE) 1,132 ? -28.4°
